星链-36633(STARLINK-36633)

导读

STARLINK-36633是美国于北京时间2026年1月30日发射的星链系列卫星,隶属于SpaceX公司的星链项目,该项目旨在构建覆盖全球的低轨卫星互联网星座,为全球用户提供高速宽带网络服务,助力偏远地区网络覆盖与全球互联,进一步完善星链星座的服务能力与覆盖范围。

Basic Information
目录编号:
67632
目录名称:
STARLINK-36633
国际标识:
2026-020R
轨道中心:
EARTH
卫星名称:
星链-36633
卫星全名:
星链-36633(STARLINK-36633)
卫星状态:
在轨 (已飞行224 天)
发射日期:
2026-01-30 UTC
国别 :
美国 (US)
星等 :
--
This satellite is enrolled in the Space Conjunction Data Service (SCDS) and the current flight risk assessment level is: High Risk
Orbit Information
数据来源 国际轨道数据 AOE轨道数据
星历时间 2026-09-10T07:11:53+0800
1天前
查看轨道信息
2026-09-10T00:00:00+0800
1天前
查看轨道信息
半长轴 6861.193km 6861.226km
偏心率 0.0001699 0.0001825
轨道倾角 43.001° 43.001°
近地点辐角 262.931° 228.304°
升交点赤经 179.318° 181.013°
平近点角 97.135° 280.468°
近地点 481.89km 481.836km
远地点 484.222km 484.342km
周期 94.267分钟 94.268分钟
每日圈数 15.27578 15.275668
Detailed Information
固有亮度:
5
最大亮度:
2.5
卫星平台:
Starlink V1.0
覆盖范围:
全球
运营商:
太空探索技术公司
运营商所在国:
美国
制造商(研发单位):
太空探索技术公司
制造商所在国:
美国
使用方式:
暂无
Satellite Introduction
Starlink 计划是 SpaceX 推出的全球卫星互联网项目,通过发射低轨道卫星,为全球尤其是偏远地区提供高速、低延迟的互联网服务。自 2019 年起,Starlink 已部署数千颗卫星,旨在缩小全球数字鸿沟,推动互联网普及。该项目还为军事、航空等行业提供通信支持,带来广泛经济效益。
2D Orbit Map
3D Orbit Map
Orbit Altitude Analysis Chart
Orbit Inclination Analysis Chart
Orbit Comprehensive Analysis Chart
View Comprehensive Chart
Miss Distance Evolution Trend with All Objects
Collision Probability Evolution Trend with All Objects